| time (UTC) | temp F | wind direction | speed MPH | gust MPH | rain 1hr in | rain 24hr in | rain mn in | humidity % | barometer mb |
| 20260509233042 | 44 | 145 | 0.0 | 0.0 | 0.00 | 0.00 | 0.00 | 85 | 1019.4 |
| 20260509232602 | 44 | 145 | 0.0 | 0.0 | 0.00 | 0.00 | 0.00 | 85 | 1019.5 |
| 20260509232026 | 44 | 169 | 0.0 | 0.0 | 0.00 | 0.00 | 0.00 | 85 | 1019.5 |
| 20260509231546 | 44 | 96 | 0.0 | 0.0 | 0.00 | 0.00 | 0.00 | 84 | 1019.6 |
| 20260509231010 | 44 | 159 | 0.0 | 0.0 | 0.00 | 0.00 | 0.00 | 84 | 1019.6 |
| 20260509230532 | 44 | 159 | 0.0 | 0.0 | 0.00 | 0.00 | 0.00 | 83 | 1019.6 |
| 20260509230104 | 44 | 159 | 0.0 | 0.0 | 0.00 | 0.00 | 0.00 | 83 | 1019.7 |
| 20260509225514 | 45 | 159 | 0.0 | 0.0 | 0.00 | 0.00 | 0.00 | 83 | 1019.6 |
| 20260509225043 | 45 | 159 | 0.0 | 0.0 | 0.00 | 0.00 | 0.00 | 83 | 1019.6 |
| 20260509224600 | 45 | 159 | 0.0 | 0.0 | 0.00 | 0.00 | 0.00 | 82 | 1019.7 |
| 20260509224025 | 45 | 159 | 0.0 | 0.0 | 0.00 | 0.00 | 0.00 | 82 | 1019.7 |
| 20260509223546 | 46 | 159 | 0.0 | 0.0 | 0.00 | 0.00 | 0.00 | 81 | 1019.7 |
| 20260509223008 | 46 | 159 | 0.0 | 0.0 | 0.00 | 0.00 | 0.00 | 81 | 1019.7 |
| 20260509222536 | 46 | 159 | 0.0 | 0.0 | 0.00 | 0.00 | 0.00 | 81 | 1019.7 |
| 20260509222056 | 46 | 159 | 0.0 | 0.0 | 0.00 | 0.00 | 0.00 | 81 | 1019.8 |
| 20260509221526 | 47 | 159 | 0.0 | 0.0 | 0.00 | 0.00 | 0.00 | 81 | 1019.8 |
| 20260509221032 | 47 | 152 | 0.0 | 0.0 | 0.00 | 0.00 | 0.00 | 81 | 1019.8 |
| 20260509220553 | 47 | 144 | 0.0 | 0.0 | 0.00 | 0.00 | 0.00 | 81 | 1019.8 |
| 20260509220006 | 47 | 173 | 0.0 | 0.0 | 0.00 | 0.00 | 0.00 | 81 | 1019.8 |
| 20260509215536 | 47 | 174 | 0.0 | 0.0 | 0.00 | 0.00 | 0.00 | 81 | 1019.8 |
| 20260509215056 | 47 | 174 | 0.0 | 0.0 | 0.00 | 0.00 | 0.00 | 80 | 1019.9 |
| 20260509214515 | 47 | 120 | 0.0 | 3.0 | 0.00 | 0.00 | 0.00 | 80 | 1020.0 |
| 20260509214032 | 47 | 156 | 0.0 | 3.0 | 0.00 | 0.00 | 0.00 | 81 | 1019.9 |
| 20260509213552 | 47 | 162 | 2.0 | 4.0 | 0.00 | 0.00 | 0.00 | 81 | 1019.9 |
| 20260509213008 | 47 | 145 | 0.0 | 0.0 | 0.00 | 0.00 | 0.00 | 81 | 1020.0 |
| 20260509212528 | 47 | 145 | 0.0 | 0.0 | 0.00 | 0.00 | 0.00 | 81 | 1020.1 |
| 20260509212046 | 47 | 158 | 0.0 | 0.0 | 0.00 | 0.00 | 0.00 | 81 | 1020.2 |
| 20260509211602 | 47 | 140 | 0.0 | 0.0 | 0.00 | 0.00 | 0.00 | 81 | 1020.2 |
| 20260509211028 | 46 | 140 | 0.0 | 0.0 | 0.00 | 0.00 | 0.00 | 81 | 1020.1 |
| 20260509210548 | 46 | 140 | 0.0 | 0.0 | 0.00 | 0.00 | 0.00 | 81 | 1020.1 |
| 20260509210016 | 47 | 140 | 0.0 | 0.0 | 0.00 | 0.00 | 0.00 | 80 | 1020.1 |
| 20260509205533 | 47 | 140 | 0.0 | 0.0 | 0.00 | 0.00 | 0.00 | 80 | 1020.1 |
| 20260509205053 | 47 | 140 | 0.0 | 0.0 | 0.00 | 0.00 | 0.00 | 80 | 1020.1 |
| 20260509204510 | 47 | 140 | 0.0 | 0.0 | 0.00 | 0.00 | 0.00 | 79 | 1020.2 |
| 20260509204040 | 47 | 140 | 0.0 | 0.0 | 0.00 | 0.00 | 0.00 | 79 | 1020.3 |
| 20260509203558 | 48 | 140 | 0.0 | 0.0 | 0.00 | 0.00 | 0.00 | 79 | 1020.3 |
| 20260509203200 | 48 | 140 | 0.0 | 0.0 | 0.00 | 0.00 | 0.00 | 78 | 1020.3 |
| 20260509202547 | 48 | 140 | 0.0 | 0.0 | 0.00 | 0.00 | 0.00 | 78 | 1020.2 |
| 20260509202003 | 48 | 140 | 0.0 | 0.0 | 0.00 | 0.00 | 0.00 | 78 | 1020.1 |
| 20260509201522 | 48 | 140 | 0.0 | 0.0 | 0.00 | 0.00 | 0.00 | 77 | 1020.0 |
| 20260509201041 | 48 | 140 | 0.0 | 0.0 | 0.00 | 0.00 | 0.00 | 77 | 1020.0 |
| 20260509200600 | 49 | 140 | 0.0 | 0.0 | 0.00 | 0.00 | 0.00 | 77 | 1020.1 |
| 20260509200026 | 49 | 140 | 0.0 | 0.0 | 0.00 | 0.00 | 0.00 | 77 | 1020.0 |
| 20260509195545 | 49 | 140 | 0.0 | 0.0 | 0.00 | 0.00 | 0.00 | 76 | 1020.0 |
| 20260509195011 | 50 | 140 | 0.0 | 0.0 | 0.00 | 0.00 | 0.00 | 76 | 1019.9 |
| 20260509194530 | 50 | 140 | 0.0 | 0.0 | 0.00 | 0.00 | 0.00 | 75 | 1020.0 |
| 20260509194050 | 50 | 140 | 0.0 | 0.0 | 0.00 | 0.00 | 0.00 | 75 | 1020.0 |
| 20260509193508 | 50 | 140 | 0.0 | 0.0 | 0.00 | 0.00 | 0.00 | 75 | 1019.9 |
| 20260509193044 | 50 | 140 | 0.0 | 0.0 | 0.00 | 0.00 | 0.00 | 75 | 1020.0 |
| 20260509192554 | 51 | 140 | 0.0 | 0.0 | 0.00 | 0.00 | 0.00 | 75 | 1019.9 |
| 20260509192032 | 51 | 140 | 0.0 | 0.0 | 0.00 | 0.00 | 0.00 | 75 | 1019.9 |
| 20260509191605 | 51 | 140 | 0.0 | 0.0 | 0.00 | 0.00 | 0.00 | 75 | 1019.9 |
| 20260509191007 | 52 | 140 | 0.0 | 0.0 | 0.00 | 0.00 | 0.00 | 74 | 1019.9 |
| 20260509190530 | 52 | 140 | 0.0 | 0.0 | 0.00 | 0.00 | 0.00 | 74 | 1019.9 |
| 20260509190058 | 52 | 140 | 0.0 | 0.0 | 0.00 | 0.00 | 0.00 | 73 | 1019.8 |
| 20260509185503 | 53 | 140 | 0.0 | 0.0 | 0.00 | 0.00 | 0.00 | 72 | 1019.9 |
| 20260509185030 | 53 | 140 | 0.0 | 0.0 | 0.00 | 0.00 | 0.00 | 72 | 1019.9 |
| 20260509184550 | 54 | 140 | 0.0 | 0.0 | 0.00 | 0.00 | 0.00 | 71 | 1019.8 |
| 20260509184015 | 54 | 111 | 0.0 | 0.0 | 0.00 | 0.00 | 0.00 | 69 | 1019.8 |
| 20260509183535 | 55 | 62 | 0.0 | 0.0 | 0.00 | 0.00 | 0.00 | 68 | 1019.8 |
| 20260509183054 | 55 | 62 | 0.0 | 0.0 | 0.00 | 0.00 | 0.00 | 67 | 1019.8 |
| 20260509182514 | 55 | 69 | 0.0 | 0.0 | 0.00 | 0.00 | 0.00 | 66 | 1019.8 |
| 20260509182031 | 56 | 69 | 0.0 | 0.0 | 0.00 | 0.00 | 0.00 | 66 | 1019.9 |
| 20260509181550 | 56 | 69 | 0.0 | 0.0 | 0.00 | 0.00 | 0.00 | 65 | 1019.9 |
| 20260509181019 | 57 | 153 | 0.0 | 0.0 | 0.00 | 0.00 | 0.00 | 65 | 1019.9 |
| 20260509180534 | 57 | 136 | 0.0 | 0.0 | 0.00 | 0.00 | 0.00 | 65 | 1020.0 |
| 20260509180054 | 57 | 136 | 0.0 | 0.0 | 0.00 | 0.00 | 0.00 | 64 | 1020.0 |
| 20260509175510 | 57 | 153 | 0.0 | 0.0 | 0.00 | 0.00 | 0.00 | 62 | 1020.0 |
| 20260509175029 | 57 | 153 | 0.0 | 0.0 | 0.00 | 0.00 | 0.00 | 61 | 1020.1 |
| 20260509174549 | 57 | 159 | 0.0 | 0.0 | 0.00 | 0.00 | 0.00 | 60 | 1020.0 |
| 20260509174008 | 58 | 137 | 0.0 | 0.0 | 0.00 | 0.00 | 0.00 | 59 | 1020.1 |
| 20260509173537 | 58 | 137 | 0.0 | 0.0 | 0.00 | 0.00 | 0.00 | 59 | 1020.0 |
| 20260509173105 | 58 | 137 | 0.0 | 0.0 | 0.00 | 0.00 | 0.00 | 59 | 1020.1 |
| 20260509172513 | 58 | 144 | 0.0 | 0.0 | 0.00 | 0.00 | 0.00 | 59 | 1020.0 |
| 20260509172029 | 58 | 144 | 0.0 | 0.0 | 0.00 | 0.00 | 0.00 | 59 | 1020.1 |
| 20260509171604 | 58 | 300 | 0.0 | 0.0 | 0.00 | 0.00 | 0.00 | 59 | 1020.1 |
| 20260509171014 | 58 | 221 | 0.0 | 2.0 | 0.00 | 0.00 | 0.00 | 58 | 1020.0 |
| 20260509170533 | 58 | 170 | 0.0 | 4.0 | 0.00 | 0.00 | 0.00 | 58 | 1020.1 |
| 20260509170050 | 58 | 144 | 0.0 | 4.0 | 0.00 | 0.00 | 0.00 | 57 | 1020.1 |
| 20260509165506 | 58 | 109 | 0.0 | 3.0 | 0.00 | 0.00 | 0.00 | 57 | 1020.1 |
| 20260509165036 | 58 | 78 | 0.0 | 4.0 | 0.00 | 0.00 | 0.00 | 57 | 1020.1 |
| 20260509164557 | 58 | 63 | 1.0 | 3.0 | 0.00 | 0.00 | 0.00 | 57 | 1020.1 |
| 20260509164023 | 58 | 92 | 0.0 | 4.0 | 0.00 | 0.00 | 0.00 | 57 | 1020.1 |
| 20260509163540 | 58 | 69 | 1.0 | 4.0 | 0.00 | 0.00 | 0.00 | 57 | 1020.2 |
| 20260509163057 | 58 | 78 | 2.0 | 6.0 | 0.00 | 0.00 | 0.00 | 56 | 1020.1 |
| 20260509162507 | 58 | 65 | 3.0 | 6.0 | 0.00 | 0.00 | 0.00 | 56 | 1020.2 |
| 20260509162036 | 58 | 98 | 2.0 | 6.0 | 0.00 | 0.00 | 0.00 | 57 | 1020.3 |
| 20260509161511 | 58 | 106 | 2.0 | 5.0 | 0.00 | 0.00 | 0.00 | 57 | 1020.4 |
| 20260509161029 | 58 | 80 | 2.0 | 5.0 | 0.00 | 0.00 | 0.00 | 56 | 1020.4 |
| 20260509160549 | 58 | 84 | 1.0 | 6.0 | 0.00 | 0.00 | 0.00 | 57 | 1020.5 |
| 20260509160006 | 58 | 42 | 1.0 | 6.0 | 0.00 | 0.00 | 0.00 | 56 | 1020.4 |
| 20260509155532 | 58 | 61 | 2.0 | 5.0 | 0.00 | 0.00 | 0.00 | 57 | 1020.4 |
| 20260509155052 | 58 | 94 | 3.0 | 5.0 | 0.00 | 0.00 | 0.00 | 56 | 1020.5 |
| 20260509154508 | 58 | 69 | 2.0 | 7.0 | 0.00 | 0.00 | 0.00 | 57 | 1020.5 |
| 20260509154033 | 59 | 61 | 2.0 | 7.0 | 0.00 | 0.00 | 0.00 | 57 | 1020.6 |
| 20260509153552 | 59 | 95 | 2.0 | 7.0 | 0.00 | 0.00 | 0.00 | 58 | 1020.5 |
| 20260509153018 | 59 | 78 | 4.0 | 8.0 | 0.00 | 0.00 | 0.00 | 57 | 1020.6 |
| 20260509152535 | 59 | 49 | 2.0 | 6.0 | 0.00 | 0.00 | 0.00 | 57 | 1020.6 |
| 20260509152055 | 59 | 44 | 3.0 | 9.0 | 0.00 | 0.00 | 0.00 | 58 | 1020.5 |
| 20260509151510 | 59 | 61 | 4.0 | 9.0 | 0.00 | 0.00 | 0.00 | 58 | 1020.6 |
| 20260509151024 | 58 | 64 | 4.0 | 9.0 | 0.00 | 0.00 | 0.00 | 57 | 1020.6 |
| 20260509150543 | 59 | 68 | 4.0 | 9.0 | 0.00 | 0.00 | 0.00 | 57 | 1020.6 |
| 20260509150103 | 59 | 53 | 2.0 | 7.0 | 0.00 | 0.00 | 0.00 | 56 | 1020.6 |
| 20260509145526 | 58 | 50 | 1.0 | 9.0 | 0.00 | 0.00 | 0.00 | 57 | 1020.6 |
| 20260509145044 | 58 | 42 | 3.0 | 9.0 | 0.00 | 0.00 | 0.00 | 58 | 1020.6 |
| 20260509144511 | 58 | 63 | 4.0 | 10.0 | 0.00 | 0.00 | 0.00 | 57 | 1020.7 |
| 20260509144029 | 59 | 28 | 3.0 | 10.0 | 0.00 | 0.00 | 0.00 | 56 | 1020.7 |
| 20260509143553 | 59 | 58 | 3.0 | 6.0 | 0.00 | 0.00 | 0.00 | 55 | 1020.7 |
| 20260509143005 | 59 | 99 | 2.0 | 6.0 | 0.00 | 0.00 | 0.00 | 54 | 1020.8 |
| 20260509142533 | 59 | 81 | 2.0 | 8.0 | 0.00 | 0.00 | 0.00 | 55 | 1020.7 |
| 20260509142051 | 59 | 83 | 4.0 | 8.0 | 0.00 | 0.00 | 0.00 | 53 | 1020.8 |
| 20260509141518 | 59 | 154 | 0.0 | 4.0 | 0.00 | 0.00 | 0.00 | 54 | 1020.7 |
| 20260509141027 | 59 | 145 | 1.0 | 4.0 | 0.00 | 0.00 | 0.00 | 55 | 1020.8 |
| 20260509140547 | 59 | 82 | 0.0 | 6.0 | 0.00 | 0.00 | 0.00 | 55 | 1020.8 |
| 20260509140003 | 59 | 61 | 0.0 | 4.0 | 0.00 | 0.00 | 0.00 | 54 | 1020.8 |
| 20260509135530 | 59 | 43 | 2.0 | 4.0 | 0.00 | 0.00 | 0.00 | 53 | 1020.8 |
| 20260509135050 | 59 | 113 | 1.0 | 5.0 | 0.00 | 0.00 | 0.00 | 54 | 1020.8 |
| 20260509134515 | 59 | 78 | 3.0 | 9.0 | 0.00 | 0.00 | 0.00 | 54 | 1020.9 |
| 20260509134038 | 59 | 62 | 4.0 | 9.0 | 0.00 | 0.00 | 0.00 | 53 | 1021.0 |
| 20260509133551 | 60 | 75 | 3.0 | 8.0 | 0.00 | 0.00 | 0.00 | 52 | 1020.9 |
| 20260509133017 | 60 | 63 | 4.0 | 8.0 | 0.00 | 0.00 | 0.00 | 51 | 1021.0 |
| 20260509132538 | 60 | 26 | 3.0 | 6.0 | 0.00 | 0.00 | 0.00 | 52 | 1021.0 |
| 20260509132054 | 60 | 74 | 2.0 | 5.0 | 0.00 | 0.00 | 0.00 | 52 | 1021.0 |
| 20260509131509 | 60 | 327 | 0.0 | 5.0 | 0.00 | 0.00 | 0.00 | 52 | 1021.0 |
| 20260509131037 | 60 | 57 | 2.0 | 5.0 | 0.00 | 0.00 | 0.00 | 51 | 1020.9 |
| 20260509130557 | 60 | 22 | 0.0 | 5.0 | 0.00 | 0.00 | 0.00 | 53 | 1021.0 |
| 20260509130014 | 60 | 284 | 0.0 | 5.0 | 0.00 | 0.00 | 0.00 | 53 | 1021.0 |
| 20260509125530 | 60 | 49 | 0.0 | 8.0 | 0.00 | 0.00 | 0.00 | 53 | 1021.0 |
| 20260509125051 | 60 | 83 | 3.0 | 8.0 | 0.00 | 0.00 | 0.00 | 52 | 1021.2 |
| 20260509124525 | 60 | 339 | 1.0 | 6.0 | 0.00 | 0.00 | 0.00 | 50 | 1021.2 |
| 20260509124034 | 61 | 40 | 1.0 | 8.0 | 0.00 | 0.00 | 0.00 | 50 | 1021.3 |
| 20260509123552 | 61 | 70 | 5.0 | 8.0 | 0.00 | 0.00 | 0.00 | 51 | 1021.3 |
| 20260509123019 | 62 | 126 | 2.0 | 6.0 | 0.00 | 0.00 | 0.00 | 49 | 1021.3 |
| 20260509122536 | 61 | 355 | 3.0 | 6.0 | 0.00 | 0.00 | 0.00 | 53 | 1021.3 |
| 20260509122057 | 61 | 128 | 1.0 | 8.0 | 0.00 | 0.00 | 0.00 | 50 | 1021.2 |
| 20260509121523 | 61 | 24 | 2.0 | 8.0 | 0.00 | 0.00 | 0.00 | 52 | 1021.2 |
| 20260509121040 | 60 | 355 | 2.0 | 8.0 | 0.00 | 0.00 | 0.00 | 52 | 1021.3 |
| 20260509120548 | 60 | 5 | 4.0 | 8.0 | 0.00 | 0.00 | 0.00 | 53 | 1021.2 |
| 20260509120003 | 60 | 55 | 3.0 | 8.0 | 0.00 | 0.00 | 0.00 | 52 | 1021.2 |
| 20260509115529 | 60 | 135 | 0.0 | 6.0 | 0.00 | 0.00 | 0.00 | 55 | 1021.2 |
| 20260509115048 | 60 | 59 | 1.0 | 8.0 | 0.00 | 0.00 | 0.00 | 54 | 1021.2 |
| 20260509114610 | 59 | 349 | 3.0 | 10.0 | 0.00 | 0.00 | 0.00 | 55 | 1021.3 |
| 20260509114014 | 59 | 360 | 4.0 | 10.0 | 0.00 | 0.00 | 0.00 | 53 | 1021.4 |
| 20260509113543 | 59 | 53 | 1.0 | 6.0 | 0.00 | 0.00 | 0.00 | 55 | 1021.4 |
| 20260509113107 | 59 | 325 | 3.0 | 9.0 | 0.00 | 0.00 | 0.00 | 55 | 1021.3 |
| 20260509112528 | 59 | 54 | 3.0 | 8.0 | 0.00 | 0.00 | 0.00 | 55 | 1021.4 |
| 20260509112049 | 58 | 87 | 1.0 | 8.0 | 0.00 | 0.00 | 0.00 | 54 | 1021.3 |
| 20260509111504 | 58 | 22 | 2.0 | 8.0 | 0.00 | 0.00 | 0.00 | 54 | 1021.4 |
| 20260509111022 | 59 | 146 | 0.0 | 3.0 | 0.00 | 0.00 | 0.00 | 51 | 1021.4 |
| 20260509110541 | 59 | 46 | 0.0 | 3.0 | 0.00 | 0.00 | 0.00 | 51 | 1021.5 |
| 20260509110108 | 59 | 58 | 0.0 | 3.0 | 0.00 | 0.00 | 0.00 | 53 | 1021.5 |
| 20260509105525 | 58 | 42 | 0.0 | 4.0 | 0.00 | 0.00 | 0.00 | 50 | 1021.5 |
| 20260509105044 | 58 | 60 | 0.0 | 4.0 | 0.00 | 0.00 | 0.00 | 50 | 1021.5 |
| 20260509104513 | 59 | 65 | 0.0 | 4.0 | 0.00 | 0.00 | 0.00 | 50 | 1021.5 |
| 20260509104028 | 59 | 41 | 1.0 | 6.0 | 0.00 | 0.00 | 0.00 | 49 | 1021.5 |
| 20260509103547 | 59 | 344 | 0.0 | 6.0 | 0.00 | 0.00 | 0.00 | 51 | 1021.5 |
| 20260509103004 | 59 | 149 | 1.0 | 4.0 | 0.00 | 0.00 | 0.00 | 51 | 1021.4 |
| 20260509102533 | 58 | 32 | 0.0 | 9.0 | 0.00 | 0.00 | 0.00 | 55 | 1021.5 |
| 20260509102052 | 58 | 22 | 3.0 | 9.0 | 0.00 | 0.00 | 0.00 | 54 | 1021.6 |
| 20260509101518 | 58 | 61 | 4.0 | 8.0 | 0.00 | 0.00 | 0.00 | 56 | 1021.6 |
| 20260509101028 | 58 | 61 | 3.0 | 7.0 | 0.00 | 0.00 | 0.00 | 56 | 1021.5 |
| 20260509100548 | 59 | 76 | 1.0 | 4.0 | 0.00 | 0.00 | 0.00 | 55 | 1021.6 |
| 20260509100005 | 60 | 90 | 0.0 | 4.0 | 0.00 | 0.00 | 0.00 | 51 | 1021.6 |
| 20260509095533 | 60 | 5 | 1.0 | 6.0 | 0.00 | 0.00 | 0.00 | 51 | 1021.6 |
| 20260509095052 | 60 | 346 | 1.0 | 6.0 | 0.00 | 0.00 | 0.00 | 50 | 1021.7 |
| 20260509094520 | 58 | 10 | 0.0 | 4.0 | 0.00 | 0.00 | 0.00 | 55 | 1021.7 |
| 20260509094039 | 58 | 328 | 0.0 | 4.0 | 0.00 | 0.00 | 0.00 | 55 | 1021.8 |
| 20260509093557 | 57 | 27 | 1.0 | 4.0 | 0.00 | 0.00 | 0.00 | 54 | 1021.7 |
| 20260509093019 | 57 | 119 | 0.0 | 6.0 | 0.00 | 0.00 | 0.00 | 56 | 1021.7 |
| 20260509092546 | 57 | 50 | 2.0 | 6.0 | 0.00 | 0.00 | 0.00 | 54 | 1021.8 |
| 20260509092103 | 57 | 79 | 3.0 | 8.0 | 0.00 | 0.00 | 0.00 | 52 | 1021.7 |
| 20260509091528 | 57 | 14 | 3.0 | 8.0 | 0.00 | 0.00 | 0.00 | 56 | 1021.7 |
| 20260509091046 | 56 | 68 | 0.0 | 5.0 | 0.00 | 0.00 | 0.00 | 59 | 1021.6 |
| 20260509090514 | 56 | 67 | 1.0 | 6.0 | 0.00 | 0.00 | 0.00 | 59 | 1021.7 |
| 20260509090032 | 56 | 32 | 1.0 | 5.0 | 0.00 | 0.00 | 0.00 | 64 | 1021.7 |
| 20260509085549 | 56 | 325 | 0.0 | 3.0 | 0.00 | 0.00 | 0.00 | 64 | 1021.6 |
| 20260509085006 | 56 | 262 | 1.0 | 4.0 | 0.00 | 0.00 | 0.00 | 65 | 1021.6 |
| 20260509084538 | 56 | 94 | 0.0 | 4.0 | 0.00 | 0.00 | 0.00 | 64 | 1021.6 |
| 20260509084055 | 56 | 61 | 0.0 | 4.0 | 0.00 | 0.00 | 0.00 | 66 | 1021.7 |
| 20260509083516 | 55 | 5 | 0.0 | 3.0 | 0.00 | 0.00 | 0.00 | 66 | 1021.6 |
| 20260509083031 | 55 | 45 | 0.0 | 3.0 | 0.00 | 0.00 | 0.00 | 66 | 1021.6 |
| 20260509082550 | 55 | 15 | 0.0 | 4.0 | 0.00 | 0.00 | 0.00 | 66 | 1021.7 |
| 20260509082006 | 55 | 53 | 1.0 | 3.0 | 0.00 | 0.00 | 0.00 | 67 | 1021.6 |
| 20260509081536 | 56 | 51 | 0.0 | 6.0 | 0.00 | 0.00 | 0.00 | 66 | 1021.6 |
| 20260509081041 | 56 | 46 | 2.0 | 6.0 | 0.00 | 0.00 | 0.00 | 63 | 1021.6 |
| 20260509080602 | 57 | 74 | 2.0 | 6.0 | 0.00 | 0.00 | 0.00 | 63 | 1021.6 |
| 20260509080026 | 57 | 77 | 3.0 | 6.0 | 0.00 | 0.00 | 0.00 | 62 | 1021.6 |
| 20260509075543 | 57 | 42 | 2.0 | 6.0 | 0.00 | 0.00 | 0.00 | 63 | 1021.6 |
| 20260509075009 | 58 | 5 | 2.0 | 8.0 | 0.00 | 0.00 | 0.00 | 63 | 1021.7 |
| 20260509074528 | 57 | 41 | 4.0 | 8.0 | 0.00 | 0.00 | 0.00 | 64 | 1021.6 |
| 20260509074050 | 57 | 325 | 0.0 | 3.0 | 0.00 | 0.00 | 0.00 | 63 | 1021.6 |
| 20260509073504 | 57 | 24 | 1.0 | 5.0 | 0.00 | 0.00 | 0.00 | 63 | 1021.5 |
| 20260509073023 | 56 | 346 | 2.0 | 5.0 | 0.00 | 0.00 | 0.00 | 60 | 1021.6 |
| 20260509072544 | 56 | 150 | 0.0 | 3.0 | 0.00 | 0.00 | 0.00 | 61 | 1021.6 |
| 20260509072101 | 56 | 351 | 1.0 | 4.0 | 0.00 | 0.00 | 0.00 | 62 | 1021.6 |
| 20260509071519 | 56 | 240 | 0.0 | 4.0 | 0.00 | 0.00 | 0.00 | 62 | 1021.6 |
| 20260509071036 | 56 | 63 | 0.0 | 3.0 | 0.00 | 0.00 | 0.00 | 62 | 1021.6 |
| 20260509070556 | 56 | 54 | 1.0 | 3.0 | 0.00 | 0.00 | 0.00 | 62 | 1021.6 |
| 20260509070023 | 55 | 335 | 0.0 | 2.0 | 0.00 | 0.00 | 0.00 | 62 | 1021.8 |
| 20260509065542 | 55 | 277 | 0.0 | 2.0 | 0.00 | 0.00 | 0.00 | 63 | 1021.7 |
| 20260509065055 | 55 | 9 | 0.0 | 3.0 | 0.00 | 0.00 | 0.00 | 61 | 1021.7 |
| 20260509064512 | 55 | 340 | 0.0 | 1.0 | 0.00 | 0.00 | 0.00 | 64 | 1021.8 |
| 20260509064043 | 54 | 332 | 0.0 | 3.0 | 0.00 | 0.00 | 0.00 | 67 | 1021.8 |
| 20260509063602 | 54 | 294 | 0.0 | 3.0 | 0.00 | 0.00 | 0.00 | 67 | 1021.7 |
| 20260509063027 | 54 | 342 | 1.0 | 3.0 | 0.00 | 0.00 | 0.00 | 70 | 1021.7 |
| 20260509062546 | 54 | 343 | 0.0 | 4.0 | 0.00 | 0.00 | 0.00 | 71 | 1021.7 |
| 20260509062003 | 53 | 9 | 0.0 | 2.0 | 0.00 | 0.00 | 0.00 | 73 | 1021.5 |
| 20260509061630 | 53 | 13 | 0.0 | 3.0 | 0.00 | 0.00 | 0.00 | 73 | 1021.6 |
| 20260509061046 | 52 | 256 | 0.0 | 3.0 | 0.00 | 0.00 | 0.00 | 73 | 1021.6 |
| 20260509060512 | 52 | 273 | 0.0 | 0.0 | 0.00 | 0.00 | 0.00 | 72 | 1021.6 |
| 20260509060032 | 52 | 322 | 0.0 | 0.0 | 0.00 | 0.00 | 0.00 | 74 | 1021.7 |
| 20260509055553 | 52 | 282 | 0.0 | 0.0 | 0.00 | 0.00 | 0.00 | 75 | 1021.5 |
| 20260509055010 | 51 | 278 | 0.0 | 0.0 | 0.00 | 0.00 | 0.00 | 76 | 1021.6 |
| 20260509054540 | 51 | 360 | 0.0 | 0.0 | 0.00 | 0.00 | 0.00 | 78 | 1021.6 |
| 20260509054047 | 51 | 336 | 0.0 | 1.0 | 0.00 | 0.00 | 0.00 | 79 | 1021.5 |
| 20260509053516 | 50 | 309 | 0.0 | 2.0 | 0.00 | 0.00 | 0.00 | 80 | 1021.4 |
| 20260509053115 | 50 | 205 | 0.0 | 0.0 | 0.00 | 0.00 | 0.00 | 81 | 1021.4 |
| 20260509052555 | 49 | 205 | 0.0 | 0.0 | 0.00 | 0.00 | 0.00 | 84 | 1021.3 |
| 20260509052011 | 48 | 278 | 0.0 | 0.0 | 0.00 | 0.00 | 0.00 | 84 | 1021.4 |
| 20260509051527 | 48 | 278 | 0.0 | 0.0 | 0.00 | 0.00 | 0.00 | 85 | 1021.4 |
| 20260509051044 | 47 | 298 | 0.0 | 0.0 | 0.00 | 0.00 | 0.00 | 86 | 1021.4 |
| 20260509050503 | 47 | 298 | 0.0 | 0.0 | 0.00 | 0.00 | 0.00 | 87 | 1021.5 |
| 20260509050040 | 46 | 298 | 0.0 | 0.0 | 0.00 | 0.00 | 0.00 | 88 | 1021.4 |
| 20260509045551 | 46 | 298 | 0.0 | 0.0 | 0.00 | 0.00 | 0.00 | 89 | 1021.3 |
| 20260509045007 | 45 | 298 | 0.0 | 0.0 | 0.00 | 0.00 | 0.00 | 90 | 1021.3 |
| 20260509044527 | 45 | 298 | 0.0 | 0.0 | 0.00 | 0.00 | 0.00 | 90 | 1021.3 |
| 20260509044044 | 45 | 298 | 0.0 | 0.0 | 0.00 | 0.00 | 0.00 | 90 | 1021.3 |
| 20260509043510 | 45 | 298 | 0.0 | 0.0 | 0.00 | 0.00 | 0.00 | 90 | 1021.3 |
| 20260509043029 | 44 | 298 | 0.0 | 0.0 | 0.00 | 0.00 | 0.00 | 90 | 1021.2 |
| 20260509042549 | 44 | 298 | 0.0 | 0.0 | 0.00 | 0.00 | 0.00 | 90 | 1021.2 |
| 20260509042008 | 44 | 315 | 0.0 | 0.0 | 0.00 | 0.00 | 0.00 | 90 | 1021.2 |
| 20260509041535 | 44 | 315 | 0.0 | 0.0 | 0.00 | 0.00 | 0.00 | 90 | 1021.2 |
| 20260509041055 | 43 | 315 | 0.0 | 0.0 | 0.00 | 0.00 | 0.00 | 90 | 1021.2 |
| 20260509040524 | 43 | 315 | 0.0 | 0.0 | 0.00 | 0.00 | 0.00 | 90 | 1021.1 |
| 20260509040046 | 43 | 315 | 0.0 | 0.0 | 0.00 | 0.00 | 0.00 | 90 | 1021.2 |
| 20260509035603 | 43 | 315 | 0.0 | 0.0 | 0.00 | 0.00 | 0.00 | 90 | 1021.2 |
| 20260509035016 | 43 | 315 | 0.0 | 0.0 | 0.00 | 0.00 | 0.00 | 90 | 1021.2 |
| 20260509034544 | 43 | 315 | 0.0 | 0.0 | 0.00 | 0.00 | 0.00 | 90 | 1021.2 |
| 20260509034100 | 43 | 315 | 0.0 | 0.0 | 0.00 | 0.00 | 0.00 | 90 | 1021.2 |
| 20260509033526 | 43 | 315 | 0.0 | 0.0 | 0.00 | 0.00 | 0.00 | 90 | 1021.2 |
| 20260509033046 | 43 | 315 | 0.0 | 0.0 | 0.00 | 0.00 | 0.00 | 90 | 1021.2 |
| 20260509032511 | 43 | 315 | 0.0 | 0.0 | 0.00 | 0.00 | 0.00 | 90 | 1021.2 |
| 20260509032030 | 43 | 315 | 0.0 | 0.0 | 0.00 | 0.00 | 0.00 | 90 | 1021.2 |
| 20260509031550 | 43 | 315 | 0.0 | 0.0 | 0.00 | 0.00 | 0.00 | 90 | 1021.2 |
| 20260509031007 | 43 | 315 | 0.0 | 0.0 | 0.00 | 0.00 | 0.00 | 90 | 1021.3 |
| 20260509030526 | 43 | 315 | 0.0 | 0.0 | 0.00 | 0.00 | 0.00 | 90 | 1021.3 |
| 20260509030043 | 43 | 327 | 0.0 | 0.0 | 0.00 | 0.00 | 0.00 | 90 | 1021.3 |
| 20260509025509 | 42 | 327 | 0.0 | 0.0 | 0.00 | 0.00 | 0.00 | 90 | 1021.3 |
| 20260509025028 | 42 | 327 | 0.0 | 0.0 | 0.00 | 0.00 | 0.00 | 90 | 1021.2 |
| 20260509024548 | 42 | 327 | 0.0 | 0.0 | 0.00 | 0.00 | 0.00 | 90 | 1021.3 |
| 20260509024005 | 42 | 327 | 0.0 | 0.0 | 0.00 | 0.00 | 0.00 | 90 | 1021.3 |
| 20260509023536 | 42 | 327 | 0.0 | 0.0 | 0.00 | 0.00 | 0.00 | 90 | 1021.3 |
| 20260509023053 | 42 | 327 | 0.0 | 0.0 | 0.00 | 0.00 | 0.00 | 90 | 1021.3 |
| 20260509022523 | 42 | 327 | 0.0 | 0.0 | 0.00 | 0.00 | 0.00 | 90 | 1021.2 |
| 20260509022039 | 42 | 327 | 0.0 | 0.0 | 0.00 | 0.00 | 0.00 | 90 | 1021.2 |
| 20260509021601 | 42 | 340 | 0.0 | 0.0 | 0.00 | 0.00 | 0.00 | 89 | 1021.3 |
| 20260509021015 | 41 | 340 | 0.0 | 0.0 | 0.00 | 0.00 | 0.00 | 89 | 1021.3 |
| 20260509020534 | 41 | 340 | 0.0 | 0.0 | 0.00 | 0.00 | 0.00 | 89 | 1021.3 |
| 20260509020055 | 41 | 340 | 0.0 | 0.0 | 0.00 | 0.00 | 0.00 | 89 | 1021.3 |
| 20260509015521 | 41 | 340 | 0.0 | 0.0 | 0.00 | 0.00 | 0.00 | 89 | 1021.2 |
| 20260509015041 | 41 | 340 | 0.0 | 0.0 | 0.00 | 0.00 | 0.00 | 89 | 1021.3 |
| 20260509014506 | 41 | 340 | 0.0 | 0.0 | 0.00 | 0.00 | 0.00 | 88 | 1021.2 |
| 20260509014026 | 41 | 340 | 0.0 | 0.0 | 0.00 | 0.00 | 0.00 | 88 | 1021.3 |
| 20260509013546 | 41 | 340 | 0.0 | 0.0 | 0.00 | 0.00 | 0.00 | 88 | 1021.2 |
| 20260509013003 | 42 | 340 | 0.0 | 0.0 | 0.00 | 0.00 | 0.00 | 88 | 1021.1 |
| 20260509012530 | 42 | 340 | 0.0 | 0.0 | 0.00 | 0.00 | 0.00 | 88 | 1021.2 |
| 20260509012051 | 42 | 340 | 0.0 | 0.0 | 0.00 | 0.00 | 0.00 | 87 | 1021.2 |
| 20260509011516 | 42 | 340 | 0.0 | 0.0 | 0.00 | 0.00 | 0.00 | 87 | 1021.2 |
| 20260509011034 | 42 | 340 | 0.0 | 0.0 | 0.00 | 0.00 | 0.00 | 87 | 1021.2 |
| 20260509010554 | 42 | 340 | 0.0 | 0.0 | 0.00 | 0.00 | 0.00 | 87 | 1021.2 |
| 20260509010014 | 43 | 340 | 0.0 | 0.0 | 0.00 | 0.00 | 0.00 | 87 | 1021.2 |
| 20260509005530 | 43 | 340 | 0.0 | 0.0 | 0.00 | 0.00 | 0.00 | 87 | 1021.1 |
| 20260509005051 | 43 | 340 | 0.0 | 0.0 | 0.00 | 0.00 | 0.00 | 87 | 1021.2 |
| 20260509004505 | 43 | 340 | 0.0 | 0.0 | 0.00 | 0.00 | 0.00 | 86 | 1021.2 |
| 20260509004035 | 44 | 340 | 0.0 | 0.0 | 0.00 | 0.00 | 0.00 | 86 | 1021.2 |
| 20260509003555 | 44 | 340 | 0.0 | 0.0 | 0.00 | 0.00 | 0.00 | 86 | 1021.1 |
| 20260509003012 | 44 | 340 | 0.0 | 0.0 | 0.00 | 0.00 | 0.00 | 86 | 1021.1 |
| 20260509002539 | 45 | 340 | 0.0 | 0.0 | 0.00 | 0.00 | 0.00 | 86 | 1021.1 |
| 20260509002049 | 45 | 340 | 0.0 | 0.0 | 0.00 | 0.00 | 0.00 | 86 | 1021.1 |
| 20260509001506 | 45 | 340 | 0.0 | 0.0 | 0.00 | 0.00 | 0.00 | 86 | 1021.1 |
| 20260509001025 | 45 | 340 | 0.0 | 0.0 | 0.00 | 0.00 | 0.00 | 86 | 1021.1 |
| 20260509000547 | 46 | 340 | 0.0 | 0.0 | 0.00 | 0.00 | 0.00 | 86 | 1021.2 |
| 20260509000011 | 46 | 340 | 0.0 | 0.0 | 0.00 | 0.00 | 0.00 | 86 | 1021.1 |
| 20260508235538 | 46 | 340 | 0.0 | 0.0 | 0.00 | 0.00 | 0.00 | 86 | 1021.2 |
| 20260508235052 | 46 | 340 | 0.0 | 0.0 | 0.00 | 0.00 | 0.00 | 86 | 1021.2 |
| 20260508234510 | 46 | 340 | 0.0 | 0.0 | 0.00 | 0.00 | 0.00 | 86 | 1021.3 |
| 20260508234041 | 47 | 340 | 0.0 | 0.0 | 0.00 | 0.00 | 0.00 | 86 | 1021.3 |
| 20260508233600 | 47 | 340 | 0.0 | 0.0 | 0.00 | 0.00 | 0.00 | 86 | 1021.3 |